Time,TemperatureF,DewpointF,PressureIn,WindDirection,WindDirectionDegrees,WindSpeedMPH,WindSpeedGustMPH,Humidity,HourlyPrecipIn,Conditions,Clouds,dailyrainin,SoftwareType,DateUTC
2013-05-04 00:00:00,68.1,66.3,29.76,SW,223,4.0,4.0,94,0.00,,,0.00,Wunderground v.1.15,2013-05-04 04:00:00,
2013-05-04 00:05:00,68.1,66.3,29.76,SSW,212,4.0,4.0,94,0.00,,,0.00,Wunderground v.1.15,2013-05-04 04:05:00,
2013-05-04 00:10:00,68.1,66.3,29.76,South,180,5.0,5.0,94,0.00,,,0.00,Wunderground v.1.15,2013-05-04 04:10:00,
2013-05-04 00:15:00,68.1,66.3,29.76,SSW,210,6.0,6.0,94,0.00,,,0.00,Wunderground v.1.15,2013-05-04 04:15:00,
2013-05-04 00:20:00,68.0,66.5,29.76,South,180,6.0,6.0,95,0.00,,,0.01,Wunderground v.1.15,2013-05-04 04:20:00,
2013-05-04 00:25:00,67.9,66.1,29.76,West,265,6.0,7.0,94,0.00,,,0.01,Wunderground v.1.15,2013-05-04 04:25:00,
2013-05-04 00:30:00,67.9,66.1,29.75,SW,231,7.0,7.0,94,0.00,,,0.01,Wunderground v.1.15,2013-05-04 04:30:00,
2013-05-04 00:35:00,67.9,66.1,29.75,South,185,6.0,7.0,94,0.00,,,0.01,Wunderground v.1.15,2013-05-04 04:35:00,
2013-05-04 00:45:00,67.9,66.4,29.75,WSW,255,6.0,7.0,95,0.00,,,0.01,Wunderground v.1.15,2013-05-04 04:45:00,
2013-05-04 00:50:00,67.9,66.4,29.75,SW,235,5.0,5.0,95,0.00,,,0.02,Wunderground v.1.15,2013-05-04 04:50:00,
2013-05-04 00:55:00,67.8,66.3,29.75,South,189,4.0,5.0,95,0.00,,,0.02,Wunderground v.1.15,2013-05-04 04:55:00,
2013-05-04 01:05:00,67.8,66.3,29.74,WSW,252,5.0,8.0,95,0.00,,,0.02,Wunderground v.1.15,2013-05-04 05:05:00,
2013-05-04 01:10:00,67.8,66.3,29.74,SSE,168,6.0,6.0,95,0.00,,,0.02,Wunderground v.1.15,2013-05-04 05:10:00,
2013-05-04 01:15:00,67.8,66.3,29.75,South,185,5.0,6.0,95,0.00,,,0.02,Wunderground v.1.15,2013-05-04 05:15:00,
2013-05-04 01:20:00,67.8,66.3,29.74,SSW,199,5.0,5.0,95,0.00,,,0.02,Wunderground v.1.15,2013-05-04 05:20:00,
2013-05-04 01:25:00,67.7,66.2,29.74,SW,224,4.0,7.0,95,0.00,,,0.02,Wunderground v.1.15,2013-05-04 05:25:00,
2013-05-04 01:30:00,67.7,66.2,29.73,SW,219,3.0,10.0,95,0.00,,,0.02,Wunderground v.1.15,2013-05-04 05:30:00,
2013-05-04 01:35:00,67.7,66.2,29.73,SW,230,3.0,10.0,95,0.00,,,0.02,Wunderground v.1.15,2013-05-04 05:35:00,
2013-05-04 01:40:00,67.7,66.2,29.73,SSW,206,4.0,5.0,95,0.00,,,0.02,Wunderground v.1.15,2013-05-04 05:40:00,
2013-05-04 01:45:00,67.7,66.2,29.73,SSW,199,4.0,5.0,95,0.00,,,0.02,Wunderground v.1.15,2013-05-04 05:45:00,
2013-05-04 01:55:00,67.8,66.3,29.73,South,180,4.0,4.0,95,0.00,,,0.02,Wunderground v.1.15,2013-05-04 05:55:00,
2013-05-04 02:00:00,67.8,66.6,29.73,South,185,3.0,3.0,96,0.00,,,0.02,Wunderground v.1.15,2013-05-04 06:00:00,
2013-05-04 02:05:00,67.8,66.6,29.73,SSW,211,2.0,3.0,96,0.00,,,0.02,Wunderground v.1.15,2013-05-04 06:05:00,
2013-05-04 02:10:00,67.8,66.6,29.73,SSW,208,2.0,2.0,96,0.00,,,0.02,Wunderground v.1.15,2013-05-04 06:10:00,
2013-05-04 02:15:00,67.9,66.7,29.73,SSW,200,2.0,4.0,96,0.00,,,0.03,Wunderground v.1.15,2013-05-04 06:15:00,
2013-05-04 02:20:00,67.9,66.7,29.72,South,189,1.0,1.0,96,0.00,,,0.03,Wunderground v.1.15,2013-05-04 06:20:00,
2013-05-04 02:25:00,67.9,66.7,29.72,South,185,1.0,1.0,96,0.00,,,0.03,Wunderground v.1.15,2013-05-04 06:25:00,
2013-05-04 02:30:00,67.9,66.7,29.72,WSW,255,1.0,6.0,96,0.00,,,0.03,Wunderground v.1.15,2013-05-04 06:30:00,
2013-05-04 02:35:00,67.9,66.7,29.72,SSW,201,1.0,6.0,96,0.00,,,0.03,Wunderground v.1.15,2013-05-04 06:35:00,
2013-05-04 02:40:00,67.9,66.7,29.72,SSW,207,1.0,1.0,96,0.00,,,0.03,Wunderground v.1.15,2013-05-04 06:40:00,
2013-05-04 02:45:00,67.9,66.7,29.72,SSW,204,0.0,1.0,96,0.00,,,0.03,Wunderground v.1.15,2013-05-04 06:45:00,
2013-05-04 02:55:00,67.9,66.7,29.72,SSW,198,1.0,2.0,96,0.00,,,0.03,Wunderground v.1.15,2013-05-04 06:55:00,
2013-05-04 03:00:00,67.8,66.6,29.71,SSW,201,1.0,1.0,96,0.00,,,0.03,Wunderground v.1.15,2013-05-04 07:00:00,
2013-05-04 03:10:00,67.7,66.5,29.71,South,175,1.0,3.0,96,0.00,,,0.03,Wunderground v.1.15,2013-05-04 07:10:00,
2013-05-04 03:20:00,67.7,66.5,29.71,SSW,208,1.0,1.0,96,0.00,,,0.03,Wunderground v.1.15,2013-05-04 07:20:00,
2013-05-04 03:25:00,67.8,66.6,29.71,South,185,0.0,3.0,96,0.00,,,0.03,Wunderground v.1.15,2013-05-04 07:25:00,
2013-05-04 03:30:00,67.8,66.6,29.71,SW,223,0.0,1.0,96,0.00,,,0.03,Wunderground v.1.15,2013-05-04 07:30:00,
2013-05-04 03:35:00,67.8,66.6,29.72,WSW,242,0.0,1.0,96,0.00,,,0.03,Wunderground v.1.15,2013-05-04 07:35:00,
2013-05-04 03:40:00,67.8,66.6,29.72,SW,230,1.0,1.0,96,0.00,,,0.03,Wunderground v.1.15,2013-05-04 07:40:00,
2013-05-04 03:45:00,67.8,66.6,29.72,SW,230,1.0,1.0,96,0.00,,,0.03,Wunderground v.1.15,2013-05-04 07:45:00,
2013-05-04 03:55:00,67.9,66.7,29.72,SW,226,1.0,2.0,96,0.00,,,0.03,Wunderground v.1.15,2013-05-04 07:55:00,
2013-05-04 04:00:00,67.9,66.7,29.72,SW,233,0.0,1.0,96,0.00,,,0.03,Wunderground v.1.15,2013-05-04 08:00:00,
2013-05-04 04:10:00,67.8,66.6,29.72,SW,220,0.0,1.0,96,0.00,,,0.03,Wunderground v.1.15,2013-05-04 08:10:00,
2013-05-04 04:15:00,67.7,66.5,29.71,SW,220,1.0,1.0,96,0.00,,,0.03,Wunderground v.1.15,2013-05-04 08:15:00,
2013-05-04 04:20:00,67.8,66.6,29.71,SW,226,1.0,2.0,96,0.00,,,0.03,Wunderground v.1.15,2013-05-04 08:20:00,
2013-05-04 04:25:00,67.9,66.7,29.72,SW,226,1.0,2.0,96,0.00,,,0.03,Wunderground v.1.15,2013-05-04 08:25:00,
2013-05-04 04:30:00,67.9,66.7,29.71,SW,226,1.0,1.0,96,0.00,,,0.03,Wunderground v.1.15,2013-05-04 08:30:00,
2013-05-04 04:35:00,68.0,66.8,29.71,SW,228,1.0,1.0,96,0.00,,,0.03,Wunderground v.1.15,2013-05-04 08:35:00,
2013-05-04 04:40:00,68.0,66.8,29.71,SW,231,0.0,1.0,96,0.00,,,0.03,Wunderground v.1.15,2013-05-04 08:40:00,
2013-05-04 04:45:00,68.0,66.8,29.71,SW,234,0.0,1.0,96,0.00,,,0.03,Wunderground v.1.15,2013-05-04 08:45:00,
2013-05-04 04:50:00,68.0,66.8,29.71,SW,234,0.0,1.0,96,0.00,,,0.03,Wunderground v.1.15,2013-05-04 08:50:00,
2013-05-04 04:55:00,68.1,66.9,29.71,SW,215,0.0,1.0,96,0.00,,,0.03,Wunderground v.1.15,2013-05-04 08:55:00,
2013-05-04 05:00:00,68.2,67.0,29.70,SW,215,0.0,1.0,96,0.00,,,0.03,Wunderground v.1.15,2013-05-04 09:00:00,
2013-05-04 05:05:00,68.2,67.0,29.70,SW,215,0.0,1.0,96,0.00,,,0.03,Wunderground v.1.15,2013-05-04 09:05:00,
2013-05-04 05:10:00,68.3,67.1,29.70,SW,216,0.0,1.0,96,0.00,,,0.03,Wunderground v.1.15,2013-05-04 09:10:00,
2013-05-04 05:20:00,68.3,67.1,29.71,SW,221,0.0,1.0,96,0.00,,,0.03,Wunderground v.1.15,2013-05-04 09:20:00,
2013-05-04 05:25:00,68.3,67.1,29.71,SW,221,0.0,1.0,96,0.00,,,0.03,Wunderground v.1.15,2013-05-04 09:25:00,
2013-05-04 05:30:00,68.3,67.1,29.71,SW,221,0.0,1.0,96,0.00,,,0.03,Wunderground v.1.15,2013-05-04 09:30:00,
2013-05-04 05:35:00,68.3,67.1,29.71,SW,221,0.0,1.0,96,0.00,,,0.03,Wunderground v.1.15,2013-05-04 09:35:00,
2013-05-04 05:40:00,68.4,67.2,29.71,SW,221,0.0,1.0,96,0.00,,,0.03,Wunderground v.1.15,2013-05-04 09:40:00,
2013-05-04 05:45:00,68.4,67.5,29.71,SW,221,0.0,1.0,97,0.00,,,0.03,Wunderground v.1.15,2013-05-04 09:45:00,
2013-05-04 05:50:00,68.4,67.5,29.72,SW,221,0.0,1.0,97,0.00,,,0.03,Wunderground v.1.15,2013-05-04 09:50:00,
2013-05-04 05:55:00,68.4,67.2,29.72,SW,221,0.0,1.0,96,0.00,,,0.03,Wunderground v.1.15,2013-05-04 09:55:00,
2013-05-04 06:00:00,68.4,67.5,29.72,SW,221,0.0,1.0,97,0.00,,,0.03,Wunderground v.1.15,2013-05-04 10:00:00,
2013-05-04 06:10:00,68.5,67.6,29.72,SW,221,0.0,1.0,97,0.00,,,0.03,Wunderground v.1.15,2013-05-04 10:10:00,
2013-05-04 06:20:00,68.5,67.6,29.72,SW,221,0.0,1.0,97,0.00,,,0.03,Wunderground v.1.15,2013-05-04 10:20:00,
2013-05-04 06:30:00,68.5,67.6,29.72,SW,221,0.0,1.0,97,0.00,,,0.03,Wunderground v.1.15,2013-05-04 10:30:00,
2013-05-04 06:35:00,68.5,67.6,29.72,SW,221,0.0,2.0,97,0.00,,,0.03,Wunderground v.1.15,2013-05-04 10:35:00,
2013-05-04 06:40:00,68.5,67.6,29.72,SW,221,0.0,1.0,97,0.00,,,0.03,Wunderground v.1.15,2013-05-04 10:40:00,
2013-05-04 06:50:00,68.5,67.6,29.72,SW,221,0.0,1.0,97,0.00,,,0.04,Wunderground v.1.15,2013-05-04 10:50:00,
2013-05-04 06:55:00,68.5,67.6,29.72,SW,221,0.0,1.0,97,0.07,,,0.05,Wunderground v.1.15,2013-05-04 10:55:00,
2013-05-04 07:00:00,68.6,67.7,29.72,SW,221,0.0,2.0,97,0.06,,,0.05,Wunderground v.1.15,2013-05-04 11:00:00,
2013-05-04 07:05:00,68.6,67.7,29.73,SW,221,0.0,2.0,97,0.04,,,0.05,Wunderground v.1.15,2013-05-04 11:05:00,
2013-05-04 07:10:00,68.6,67.7,29.73,SW,221,0.0,0.0,97,0.00,,,0.05,Wunderground v.1.15,2013-05-04 11:10:00,
2013-05-04 07:15:00,68.6,67.7,29.73,SW,221,0.0,0.0,97,0.00,,,0.05,Wunderground v.1.15,2013-05-04 11:15:00,
2013-05-04 07:20:00,68.6,67.7,29.73,SW,221,0.0,0.0,97,0.00,,,0.05,Wunderground v.1.15,2013-05-04 11:20:00,
2013-05-04 07:25:00,68.6,67.7,29.73,SW,221,0.0,2.0,97,0.00,,,0.05,Wunderground v.1.15,2013-05-04 11:25:00,
2013-05-04 07:30:00,68.8,67.9,29.74,SW,221,0.0,0.0,97,0.00,,,0.05,Wunderground v.1.15,2013-05-04 11:30:00,
2013-05-04 07:40:00,68.8,67.9,29.74,SW,221,0.0,0.0,97,0.00,,,0.05,Wunderground v.1.15,2013-05-04 11:40:00,
2013-05-04 07:55:00,68.7,67.8,29.74,SW,221,0.0,0.0,97,0.00,,,0.05,Wunderground v.1.15,2013-05-04 11:55:00,
2013-05-04 08:00:00,68.7,67.8,29.75,SW,221,0.0,0.0,97,0.00,,,0.05,Wunderground v.1.15,2013-05-04 12:00:00,
2013-05-04 08:05:00,68.8,67.9,29.75,SW,221,0.0,4.0,97,0.00,,,0.05,Wunderground v.1.15,2013-05-04 12:05:00,
2013-05-04 08:10:00,68.8,67.9,29.74,SW,221,0.0,4.0,97,0.00,,,0.05,Wunderground v.1.15,2013-05-04 12:10:00,
2013-05-04 08:15:00,68.9,68.0,29.75,SW,221,0.0,4.0,97,0.00,,,0.05,Wunderground v.1.15,2013-05-04 12:15:00,
2013-05-04 08:20:00,69.0,68.1,29.74,SW,221,0.0,4.0,97,0.00,,,0.05,Wunderground v.1.15,2013-05-04 12:20:00,
2013-05-04 08:25:00,68.9,68.0,29.74,SSW,204,1.0,5.0,97,0.00,,,0.05,Wunderground v.1.15,2013-05-04 12:25:00,
2013-05-04 08:30:00,68.9,68.0,29.74,SSW,200,1.0,4.0,97,0.00,,,0.05,Wunderground v.1.15,2013-05-04 12:30:00,
2013-05-04 08:35:00,69.0,68.1,29.74,SSW,204,1.0,4.0,97,0.00,,,0.05,Wunderground v.1.15,2013-05-04 12:35:00,
2013-05-04 08:40:00,68.9,67.7,29.74,SSW,204,0.0,4.0,96,0.00,,,0.05,Wunderground v.1.15,2013-05-04 12:40:00,
2013-05-04 08:50:00,69.0,68.1,29.74,SSW,204,0.0,4.0,97,0.00,,,0.05,Wunderground v.1.15,2013-05-04 12:50:00,
2013-05-04 08:55:00,68.9,67.7,29.74,SSW,204,0.0,4.0,96,0.00,,,0.05,Wunderground v.1.15,2013-05-04 12:55:00,
2013-05-04 09:05:00,69.1,68.2,29.74,SSW,204,0.0,4.0,97,0.00,,,0.05,Wunderground v.1.15,2013-05-04 13:05:00,
2013-05-04 09:10:00,69.2,68.3,29.74,SSW,205,0.0,4.0,97,0.00,,,0.05,Wunderground v.1.15,2013-05-04 13:10:00,
2013-05-04 09:15:00,69.4,68.5,29.74,SSW,205,0.0,4.0,97,0.00,,,0.05,Wunderground v.1.15,2013-05-04 13:15:00,
2013-05-04 09:20:00,69.5,68.6,29.74,SSW,205,0.0,4.0,97,0.00,,,0.05,Wunderground v.1.15,2013-05-04 13:20:00,
2013-05-04 09:25:00,69.4,68.2,29.74,SSW,205,0.0,4.0,96,0.00,,,0.05,Wunderground v.1.15,2013-05-04 13:25:00,
2013-05-04 09:35:00,69.5,68.3,29.74,SSW,206,0.0,4.0,96,0.00,,,0.05,Wunderground v.1.15,2013-05-04 13:35:00,
2013-05-04 09:40:00,69.5,68.3,29.74,SSW,206,0.0,4.0,96,0.00,,,0.05,Wunderground v.1.15,2013-05-04 13:40:00,
2013-05-04 09:45:00,69.7,68.8,29.74,SSW,206,0.0,4.0,97,0.00,,,0.05,Wunderground v.1.15,2013-05-04 13:45:00,
2013-05-04 09:55:00,69.5,68.3,29.75,SSW,206,1.0,4.0,96,0.00,,,0.05,Wunderground v.1.15,2013-05-04 13:55:00,
2013-05-04 10:00:00,69.5,68.3,29.75,SSW,206,1.0,1.0,96,0.00,,,0.05,Wunderground v.1.15,2013-05-04 14:00:00,
2013-05-04 10:05:00,69.7,68.8,29.75,SSW,206,0.0,4.0,97,0.00,,,0.05,Wunderground v.1.15,2013-05-04 14:05:00,
2013-05-04 10:10:00,69.9,68.7,29.75,SSW,206,0.0,4.0,96,0.00,,,0.05,Wunderground v.1.15,2013-05-04 14:10:00,
2013-05-04 10:15:00,70.1,68.9,29.75,SSW,206,0.0,4.0,96,0.00,,,0.05,Wunderground v.1.15,2013-05-04 14:15:00,
2013-05-04 10:20:00,70.2,69.0,29.75,SSW,206,0.0,4.0,96,0.00,,,0.05,Wunderground v.1.15,2013-05-04 14:20:00,
2013-05-04 10:25:00,70.6,69.4,29.76,SSW,206,0.0,4.0,96,0.00,,,0.05,Wunderground v.1.15,2013-05-04 14:25:00,
2013-05-04 10:30:00,70.9,69.7,29.76,SSW,206,0.0,4.0,96,0.00,,,0.05,Wunderground v.1.15,2013-05-04 14:30:00,
2013-05-04 10:35:00,71.0,69.8,29.76,SSW,210,0.0,4.0,96,0.00,,,0.05,Wunderground v.1.15,2013-05-04 14:35:00,
2013-05-04 10:40:00,71.0,69.5,29.76,SSW,197,1.0,1.0,95,0.00,,,0.05,Wunderground v.1.15,2013-05-04 14:40:00,
2013-05-04 10:45:00,71.2,69.7,29.76,SSW,197,0.0,4.0,95,0.00,,,0.05,Wunderground v.1.15,2013-05-04 14:45:00,
2013-05-04 10:50:00,71.4,69.9,29.76,SSW,198,0.0,4.0,95,0.00,,,0.05,Wunderground v.1.15,2013-05-04 14:50:00,
2013-05-04 10:55:00,71.5,70.0,29.76,SSW,198,0.0,4.0,95,0.00,,,0.05,Wunderground v.1.15,2013-05-04 14:55:00,
2013-05-04 11:00:00,71.5,69.7,29.76,SSW,198,0.0,4.0,94,0.00,,,0.05,Wunderground v.1.15,2013-05-04 15:00:00,
2013-05-04 11:05:00,71.6,69.8,29.76,SSW,198,0.0,4.0,94,0.00,,,0.05,Wunderground v.1.15,2013-05-04 15:05:00,
2013-05-04 11:10:00,71.7,69.9,29.77,SSE,163,0.0,4.0,94,0.00,,,0.05,Wunderground v.1.15,2013-05-04 15:10:00,
2013-05-04 11:15:00,71.9,69.8,29.77,South,185,0.0,4.0,93,0.00,,,0.05,Wunderground v.1.15,2013-05-04 15:15:00,
2013-05-04 11:20:00,72.0,69.9,29.77,WSW,237,0.0,4.0,93,0.00,,,0.05,Wunderground v.1.15,2013-05-04 15:20:00,
2013-05-04 11:25:00,72.1,70.0,29.77,WSW,237,0.0,4.0,93,0.00,,,0.05,Wunderground v.1.15,2013-05-04 15:25:00,
2013-05-04 11:30:00,72.1,69.6,29.77,WSW,237,0.0,4.0,92,0.00,,,0.05,Wunderground v.1.15,2013-05-04 15:30:00,
2013-05-04 11:40:00,72.3,69.8,29.77,WSW,240,0.0,4.0,92,0.00,,,0.05,Wunderground v.1.15,2013-05-04 15:40:00,
2013-05-04 11:45:00,72.5,70.0,29.76,WSW,240,0.0,4.0,92,0.00,,,0.05,Wunderground v.1.15,2013-05-04 15:45:00,
2013-05-04 11:50:00,72.6,69.8,29.76,WSW,240,0.0,4.0,91,0.00,,,0.05,Wunderground v.1.15,2013-05-04 15:50:00,
2013-05-04 11:55:00,72.4,69.3,29.76,WSW,240,0.0,4.0,90,0.00,,,0.05,Wunderground v.1.15,2013-05-04 15:55:00,
2013-05-04 12:00:00,72.5,69.4,29.76,WSW,240,1.0,1.0,90,0.00,,,0.05,Wunderground v.1.15,2013-05-04 16:00:00,
2013-05-04 12:05:00,72.7,69.6,29.76,East,93,1.0,3.0,90,0.00,,,0.05,Wunderground v.1.15,2013-05-04 16:05:00,
2013-05-04 12:10:00,72.9,69.8,29.76,East,93,2.0,4.0,90,0.00,,,0.05,Wunderground v.1.15,2013-05-04 16:10:00,
2013-05-04 12:15:00,72.9,69.5,29.76,East,93,1.0,4.0,89,0.00,,,0.05,Wunderground v.1.15,2013-05-04 16:15:00,
2013-05-04 12:20:00,73.4,70.3,29.76,East,93,0.0,4.0,90,0.00,,,0.05,Wunderground v.1.15,2013-05-04 16:20:00,
2013-05-04 12:25:00,73.7,70.3,29.75,East,83,1.0,4.0,89,0.00,,,0.05,Wunderground v.1.15,2013-05-04 16:25:00,
2013-05-04 12:30:00,74.2,70.7,29.75,East,94,1.0,1.0,89,0.00,,,0.05,Wunderground v.1.15,2013-05-04 16:30:00,
2013-05-04 12:35:00,74.5,70.4,29.75,South,175,1.0,4.0,87,0.00,,,0.05,Wunderground v.1.15,2013-05-04 16:35:00,
2013-05-04 12:40:00,74.8,70.3,29.75,East,81,2.0,2.0,86,0.00,,,0.05,Wunderground v.1.15,2013-05-04 16:40:00,
2013-05-04 12:45:00,75.2,70.4,29.74,East,81,1.0,4.0,85,0.00,,,0.05,Wunderground v.1.15,2013-05-04 16:45:00,
2013-05-04 12:50:00,75.6,70.1,29.74,ESE,118,1.0,1.0,83,0.00,,,0.05,Wunderground v.1.15,2013-05-04 16:50:00,
2013-05-04 12:55:00,76.1,70.6,29.74,ESE,116,1.0,4.0,83,0.00,,,0.05,Wunderground v.1.15,2013-05-04 16:55:00,
2013-05-04 13:00:00,76.7,70.4,29.74,East,89,0.0,4.0,81,0.00,,,0.05,Wunderground v.1.15,2013-05-04 17:00:00,
2013-05-04 13:05:00,77.6,70.9,29.73,East,99,1.0,4.0,80,0.00,,,0.05,Wunderground v.1.15,2013-05-04 17:05:00,
2013-05-04 13:10:00,78.1,70.7,29.73,South,175,2.0,2.0,78,0.00,,,0.05,Wunderground v.1.15,2013-05-04 17:10:00,
2013-05-04 13:20:00,79.6,71.0,29.73,North,2,2.0,7.0,75,0.00,,,0.05,Wunderground v.1.15,2013-05-04 17:20:00,
2013-05-04 13:25:00,80.0,70.6,29.72,NNE,32,3.0,7.0,73,0.00,,,0.05,Wunderground v.1.15,2013-05-04 17:25:00,
2013-05-04 13:30:00,80.2,69.9,29.72,East,85,3.0,6.0,71,0.00,,,0.05,Wunderground v.1.15,2013-05-04 17:30:00,
2013-05-04 13:35:00,80.3,69.6,29.73,SE,126,3.0,6.0,70,0.00,,,0.05,Wunderground v.1.15,2013-05-04 17:35:00,
2013-05-04 13:40:00,80.5,69.8,29.73,ESE,118,3.0,3.0,70,0.00,,,0.05,Wunderground v.1.15,2013-05-04 17:40:00,
2013-05-04 13:45:00,80.5,69.8,29.72,ESE,108,2.0,4.0,70,0.00,,,0.05,Wunderground v.1.15,2013-05-04 17:45:00,
2013-05-04 13:50:00,80.8,70.9,29.72,ENE,67,2.0,5.0,72,0.00,,,0.05,Wunderground v.1.15,2013-05-04 17:50:00,
2013-05-04 13:55:00,81.1,70.0,29.71,East,83,4.0,12.0,69,0.00,,,0.05,Wunderground v.1.15,2013-05-04 17:55:00,
2013-05-04 14:00:00,81.8,71.1,29.71,East,94,5.0,5.0,70,0.00,,,0.05,Wunderground v.1.15,2013-05-04 18:00:00,
2013-05-04 14:05:00,82.2,71.0,29.71,ESE,105,4.0,6.0,69,0.00,,,0.05,Wunderground v.1.15,2013-05-04 18:05:00,
2013-05-04 14:10:00,82.5,70.4,29.71,ENE,73,4.0,4.0,67,0.00,,,0.05,Wunderground v.1.15,2013-05-04 18:10:00,
2013-05-04 14:20:00,82.7,70.6,29.72,ENE,71,4.0,5.0,67,0.00,,,0.05,Wunderground v.1.15,2013-05-04 18:20:00,
2013-05-04 14:25:00,82.5,70.0,29.72,East,93,4.0,5.0,66,0.00,,,0.05,Wunderground v.1.15,2013-05-04 18:25:00,
2013-05-04 14:30:00,82.7,71.5,29.72,East,79,3.0,4.0,69,0.00,,,0.05,Wunderground v.1.15,2013-05-04 18:30:00,
2013-05-04 14:35:00,83.1,71.4,29.72,East,88,3.0,4.0,68,0.00,,,0.05,Wunderground v.1.15,2013-05-04 18:35:00,
2013-05-04 14:40:00,83.6,71.0,29.72,ENE,60,4.0,4.0,66,0.00,,,0.05,Wunderground v.1.15,2013-05-04 18:40:00,
2013-05-04 14:45:00,83.6,70.6,29.72,South,175,4.0,4.0,65,0.00,,,0.05,Wunderground v.1.15,2013-05-04 18:45:00,
2013-05-04 14:50:00,83.4,70.8,29.73,ENE,75,5.0,5.0,66,0.00,,,0.05,Wunderground v.1.15,2013-05-04 18:50:00,
2013-05-04 14:55:00,83.2,70.7,29.73,East,82,5.0,5.0,66,0.00,,,0.05,Wunderground v.1.15,2013-05-04 18:55:00,
2013-05-04 15:00:00,82.8,70.7,29.73,East,88,4.0,4.0,67,0.00,,,0.05,Wunderground v.1.15,2013-05-04 19:00:00,
2013-05-04 15:10:00,82.6,71.0,29.72,ESE,123,3.0,3.0,68,0.00,,,0.05,Wunderground v.1.15,2013-05-04 19:10:00,
2013-05-04 15:15:00,82.7,70.6,29.72,East,88,4.0,7.0,67,0.00,,,0.05,Wunderground v.1.15,2013-05-04 19:15:00,
2013-05-04 15:20:00,82.6,70.5,29.72,ENE,70,4.0,7.0,67,0.00,,,0.05,Wunderground v.1.15,2013-05-04 19:20:00,
2013-05-04 15:25:00,82.4,70.3,29.71,SE,130,5.0,7.0,67,0.00,,,0.05,Wunderground v.1.15,2013-05-04 19:25:00,
2013-05-04 15:30:00,82.2,70.1,29.71,ENE,64,4.0,4.0,67,0.00,,,0.05,Wunderground v.1.15,2013-05-04 19:30:00,
2013-05-04 15:35:00,82.0,70.4,29.71,ESE,108,4.0,7.0,68,0.00,,,0.05,Wunderground v.1.15,2013-05-04 19:35:00,
2013-05-04 15:40:00,82.3,70.7,29.71,ENE,69,5.0,5.0,68,0.00,,,0.05,Wunderground v.1.15,2013-05-04 19:40:00,
2013-05-04 15:45:00,82.6,70.1,29.71,East,83,5.0,5.0,66,0.00,,,0.05,Wunderground v.1.15,2013-05-04 19:45:00,
2013-05-04 15:50:00,82.5,70.0,29.71,East,94,5.0,5.0,66,0.00,,,0.05,Wunderground v.1.15,2013-05-04 19:50:00,
2013-05-04 15:55:00,82.5,70.0,29.71,SE,137,4.0,5.0,66,0.00,,,0.05,Wunderground v.1.15,2013-05-04 19:55:00,
2013-05-04 16:00:00,82.5,70.4,29.71,East,91,4.0,4.0,67,0.00,,,0.05,Wunderground v.1.15,2013-05-04 20:00:00,
2013-05-04 16:05:00,82.5,70.0,29.71,East,91,4.0,4.0,66,0.00,,,0.05,Wunderground v.1.15,2013-05-04 20:05:00,
2013-05-04 16:10:00,82.7,71.1,29.71,East,100,4.0,6.0,68,0.00,,,0.05,Wunderground v.1.15,2013-05-04 20:10:00,
2013-05-04 16:15:00,83.2,70.2,29.72,ENE,68,5.0,6.0,65,0.00,,,0.05,Wunderground v.1.15,2013-05-04 20:15:00,
2013-05-04 16:20:00,83.6,70.6,29.71,ENE,77,6.0,6.0,65,0.00,,,0.05,Wunderground v.1.15,2013-05-04 20:20:00,
2013-05-04 16:25:00,84.0,70.5,29.71,ENE,74,5.0,10.0,64,0.00,,,0.05,Wunderground v.1.15,2013-05-04 20:25:00,
2013-05-04 16:30:00,84.2,70.2,29.71,ESE,103,6.0,7.0,63,0.00,,,0.05,Wunderground v.1.15,2013-05-04 20:30:00,
2013-05-04 16:35:00,84.1,70.1,29.71,ENE,78,6.0,7.0,63,0.00,,,0.05,Wunderground v.1.15,2013-05-04 20:35:00,
2013-05-04 16:45:00,83.6,70.6,29.72,ENE,68,6.0,6.0,65,0.00,,,0.05,Wunderground v.1.15,2013-05-04 20:45:00,
2013-05-04 16:50:00,83.8,69.9,29.71,ENE,75,4.0,4.0,63,0.00,,,0.05,Wunderground v.1.15,2013-05-04 20:50:00,
2013-05-04 16:55:00,83.6,69.7,29.71,NE,42,5.0,5.0,63,0.00,,,0.05,Wunderground v.1.15,2013-05-04 20:55:00,
2013-05-04 17:00:00,83.2,70.2,29.71,East,82,6.0,6.0,65,0.00,,,0.05,Wunderground v.1.15,2013-05-04 21:00:00,
2013-05-04 17:05:00,83.1,70.6,29.72,East,81,5.0,6.0,66,0.00,,,0.05,Wunderground v.1.15,2013-05-04 21:05:00,
2013-05-04 17:10:00,83.1,70.1,29.72,SSE,164,4.0,5.0,65,0.00,,,0.05,Wunderground v.1.15,2013-05-04 21:10:00,
2013-05-04 17:15:00,83.2,70.2,29.72,ESE,102,5.0,6.0,65,0.00,,,0.05,Wunderground v.1.15,2013-05-04 21:15:00,
2013-05-04 17:20:00,83.5,70.5,29.72,East,79,5.0,5.0,65,0.00,,,0.05,Wunderground v.1.15,2013-05-04 21:20:00,
2013-05-04 17:25:00,83.7,70.7,29.71,NNE,32,4.0,5.0,65,0.00,,,0.05,Wunderground v.1.15,2013-05-04 21:25:00,
2013-05-04 17:30:00,83.9,70.4,29.71,ESE,102,4.0,6.0,64,0.00,,,0.05,Wunderground v.1.15,2013-05-04 21:30:00,
2013-05-04 17:35:00,84.2,71.2,29.72,NE,53,3.0,6.0,65,0.00,,,0.05,Wunderground v.1.15,2013-05-04 21:35:00,
2013-05-04 17:40:00,84.4,70.9,29.72,ENE,70,4.0,6.0,64,0.00,,,0.05,Wunderground v.1.15,2013-05-04 21:40:00,
2013-05-04 17:45:00,84.4,70.4,29.72,SSE,151,4.0,6.0,63,0.00,,,0.05,Wunderground v.1.15,2013-05-04 21:45:00,
2013-05-04 17:50:00,84.3,70.3,29.72,ENE,74,4.0,4.0,63,0.00,,,0.05,Wunderground v.1.15,2013-05-04 21:50:00,
2013-05-04 18:00:00,84.2,69.8,29.71,SE,132,4.0,4.0,62,0.00,,,0.05,Wunderground v.1.15,2013-05-04 22:00:00,
2013-05-04 18:05:00,83.6,69.7,29.72,East,87,4.0,5.0,63,0.00,,,0.05,Wunderground v.1.15,2013-05-04 22:05:00,
2013-05-04 18:10:00,83.0,70.0,29.72,ENE,68,4.0,4.0,65,0.00,,,0.05,Wunderground v.1.15,2013-05-04 22:10:00,
2013-05-04 18:15:00,82.4,69.4,29.72,ESE,112,3.0,4.0,65,0.00,,,0.05,Wunderground v.1.15,2013-05-04 22:15:00,
2013-05-04 18:20:00,81.9,69.4,29.72,East,99,2.0,4.0,66,0.00,,,0.05,Wunderground v.1.15,2013-05-04 22:20:00,
2013-05-04 18:25:00,81.8,70.2,29.72,ESE,106,1.0,4.0,68,0.00,,,0.05,Wunderground v.1.15,2013-05-04 22:25:00,
2013-05-04 18:30:00,81.8,69.3,29.72,ENE,66,2.0,5.0,66,0.00,,,0.05,Wunderground v.1.15,2013-05-04 22:30:00,
2013-05-04 18:35:00,81.7,69.7,29.72,ESE,102,3.0,5.0,67,0.00,,,0.05,Wunderground v.1.15,2013-05-04 22:35:00,
2013-05-04 18:40:00,81.7,69.2,29.72,ESE,108,2.0,4.0,66,0.00,,,0.05,Wunderground v.1.15,2013-05-04 22:40:00,
2013-05-04 18:45:00,81.6,69.1,29.72,SE,124,1.0,4.0,66,0.00,,,0.05,Wunderground v.1.15,2013-05-04 22:45:00,
2013-05-04 18:50:00,81.5,69.5,29.72,ESE,110,1.0,4.0,67,0.00,,,0.05,Wunderground v.1.15,2013-05-04 22:50:00,
2013-05-04 18:55:00,81.4,69.4,29.72,East,85,1.0,4.0,67,0.00,,,0.05,Wunderground v.1.15,2013-05-04 22:55:00,
2013-05-04 19:00:00,81.4,70.2,29.72,East,88,1.0,1.0,69,0.00,,,0.05,Wunderground v.1.15,2013-05-04 23:00:00,
2013-05-04 19:10:00,81.0,70.7,29.73,SSW,208,1.0,4.0,71,0.00,,,0.05,Wunderground v.1.15,2013-05-04 23:10:00,
2013-05-04 19:15:00,80.7,70.8,29.73,South,175,1.0,4.0,72,0.00,,,0.05,Wunderground v.1.15,2013-05-04 23:15:00,
2013-05-04 19:20:00,80.2,70.8,29.73,South,175,0.0,4.0,73,0.00,,,0.05,Wunderground v.1.15,2013-05-04 23:20:00,
2013-05-04 19:25:00,80.0,70.6,29.73,SW,216,0.0,4.0,73,0.00,,,0.05,Wunderground v.1.15,2013-05-04 23:25:00,
2013-05-04 19:30:00,79.7,70.7,29.73,SW,215,0.0,4.0,74,0.00,,,0.05,Wunderground v.1.15,2013-05-04 23:30:00,
2013-05-04 19:35:00,79.3,70.7,29.73,SW,214,0.0,4.0,75,0.00,,,0.05,Wunderground v.1.15,2013-05-04 23:35:00,
2013-05-04 19:40:00,79.1,70.9,29.73,SW,214,0.0,4.0,76,0.00,,,0.05,Wunderground v.1.15,2013-05-04 23:40:00,
2013-05-04 19:50:00,78.6,70.4,29.73,SW,216,0.0,4.0,76,0.00,,,0.05,Wunderground v.1.15,2013-05-04 23:50:00,
2013-05-04 19:55:00,78.4,70.6,29.73,SW,223,0.0,4.0,77,0.00,,,0.05,Wunderground v.1.15,2013-05-04 23:55:00,
2013-05-04 20:00:00,78.1,70.3,29.73,SW,222,0.0,4.0,77,0.00,,,0.05,Wunderground v.1.15,2013-05-05 00:00:00,
2013-05-04 20:05:00,78.0,70.2,29.73,SW,222,0.0,4.0,77,0.00,,,0.05,Wunderground v.1.15,2013-05-05 00:05:00,
2013-05-04 20:15:00,77.3,69.9,29.73,SW,218,0.0,4.0,78,0.00,,,0.05,Wunderground v.1.15,2013-05-05 00:15:00,
2013-05-04 20:20:00,77.1,69.7,29.74,SW,218,0.0,4.0,78,0.00,,,0.05,Wunderground v.1.15,2013-05-05 00:20:00,
2013-05-04 20:25:00,76.9,69.5,29.74,SW,218,0.0,4.0,78,0.00,,,0.05,Wunderground v.1.15,2013-05-05 00:25:00,
2013-05-04 20:30:00,76.7,69.3,29.74,SW,218,0.0,4.0,78,0.00,,,0.05,Wunderground v.1.15,2013-05-05 00:30:00,
2013-05-04 20:40:00,76.2,69.6,29.74,SW,218,0.0,4.0,80,0.00,,,0.05,Wunderground v.1.15,2013-05-05 00:40:00,
2013-05-04 20:45:00,75.9,69.3,29.75,SSE,166,0.0,4.0,80,0.00,,,0.05,Wunderground v.1.15,2013-05-05 00:45:00,
2013-05-04 20:55:00,75.0,67.7,29.75,East,81,3.0,5.0,78,0.00,,,0.05,Wunderground v.1.15,2013-05-05 00:55:00,
2013-05-04 21:00:00,74.8,67.5,29.75,East,81,3.0,3.0,78,0.00,,,0.05,Wunderground v.1.15,2013-05-05 01:00:00,
2013-05-04 21:05:00,74.6,67.7,29.75,East,81,1.0,4.0,79,0.00,,,0.05,Wunderground v.1.15,2013-05-05 01:05:00,
2013-05-04 21:10:00,74.4,67.5,29.76,East,81,1.0,1.0,79,0.00,,,0.05,Wunderground v.1.15,2013-05-05 01:10:00,
2013-05-04 21:15:00,74.2,67.3,29.76,East,81,0.0,4.0,79,0.00,,,0.05,Wunderground v.1.15,2013-05-05 01:15:00,
2013-05-04 21:20:00,74.1,67.2,29.76,East,81,0.0,4.0,79,0.00,,,0.05,Wunderground v.1.15,2013-05-05 01:20:00,
2013-05-04 21:30:00,73.7,66.8,29.77,East,81,0.0,4.0,79,0.00,,,0.05,Wunderground v.1.15,2013-05-05 01:30:00,
2013-05-04 21:35:00,73.6,66.7,29.77,ENE,76,0.0,4.0,79,0.00,,,0.05,Wunderground v.1.15,2013-05-05 01:35:00,
2013-05-04 21:40:00,73.4,66.9,29.77,ENE,70,1.0,1.0,80,0.00,,,0.05,Wunderground v.1.15,2013-05-05 01:40:00,
2013-05-04 21:45:00,73.2,66.7,29.78,ENE,71,1.0,4.0,80,0.00,,,0.05,Wunderground v.1.15,2013-05-05 01:45:00,
2013-05-04 21:50:00,73.0,66.8,29.78,ENE,71,1.0,1.0,81,0.00,,,0.05,Wunderground v.1.15,2013-05-05 01:50:00,
2013-05-04 22:00:00,72.6,66.4,29.80,ENE,71,0.0,4.0,81,0.00,,,0.05,Wunderground v.1.15,2013-05-05 02:00:00,
2013-05-04 22:05:00,72.5,66.7,29.80,ENE,71,0.0,4.0,82,0.00,,,0.05,Wunderground v.1.15,2013-05-05 02:05:00,
2013-05-04 22:10:00,72.3,66.5,29.80,ENE,71,0.0,4.0,82,0.00,,,0.05,Wunderground v.1.15,2013-05-05 02:10:00,
2013-05-04 22:15:00,72.2,66.7,29.81,ENE,71,0.0,4.0,83,0.00,,,0.05,Wunderground v.1.15,2013-05-05 02:15:00,
2013-05-04 22:20:00,72.1,66.6,29.81,ENE,71,0.0,4.0,83,0.00,,,0.05,Wunderground v.1.15,2013-05-05 02:20:00,
2013-05-04 22:25:00,72.0,66.6,29.81,ENE,71,0.0,4.0,83,0.00,,,0.05,Wunderground v.1.15,2013-05-05 02:25:00,
2013-05-04 22:30:00,71.9,66.5,29.81,ENE,71,0.0,4.0,83,0.00,,,0.05,Wunderground v.1.15,2013-05-05 02:30:00,
2013-05-04 22:35:00,71.8,66.7,29.81,ENE,71,0.0,4.0,84,0.00,,,0.05,Wunderground v.1.15,2013-05-05 02:35:00,
2013-05-04 22:40:00,71.7,66.6,29.81,ENE,71,0.0,4.0,84,0.00,,,0.05,Wunderground v.1.15,2013-05-05 02:40:00,
2013-05-04 22:45:00,71.6,66.5,29.81,ENE,71,0.0,4.0,84,0.00,,,0.05,Wunderground v.1.15,2013-05-05 02:45:00,
2013-05-04 22:50:00,71.5,66.4,29.81,ENE,71,0.0,4.0,84,0.00,,,0.05,Wunderground v.1.15,2013-05-05 02:50:00,
2013-05-04 22:55:00,71.3,66.2,29.82,ENE,71,0.0,4.0,84,0.00,,,0.05,Wunderground v.1.15,2013-05-05 02:55:00,
2013-05-04 23:00:00,71.2,66.1,29.82,ENE,71,0.0,4.0,84,0.00,,,0.05,Wunderground v.1.15,2013-05-05 03:00:00,
2013-05-04 23:05:00,71.0,65.9,29.82,ENE,71,0.0,4.0,84,0.00,,,0.05,Wunderground v.1.15,2013-05-05 03:05:00,
2013-05-04 23:10:00,70.9,65.8,29.82,ENE,71,0.0,4.0,84,0.00,,,0.05,Wunderground v.1.15,2013-05-05 03:10:00,
2013-05-04 23:15:00,70.9,66.2,29.82,ENE,71,0.0,4.0,85,0.00,,,0.05,Wunderground v.1.15,2013-05-05 03:15:00,
2013-05-04 23:25:00,70.7,66.0,29.82,ENE,71,0.0,4.0,85,0.00,,,0.05,Wunderground v.1.15,2013-05-05 03:25:00,
2013-05-04 23:30:00,70.6,65.9,29.82,ENE,71,0.0,4.0,85,0.00,,,0.05,Wunderground v.1.15,2013-05-05 03:30:00,
2013-05-04 23:35:00,70.6,66.2,29.82,ENE,71,0.0,4.0,86,0.00,,,0.05,Wunderground v.1.15,2013-05-05 03:35:00,
2013-05-04 23:40:00,70.6,66.2,29.82,ENE,71,0.0,4.0,86,0.00,,,0.05,Wunderground v.1.15,2013-05-05 03:40:00,
2013-05-04 23:45:00,70.6,66.2,29.82,ENE,71,0.0,4.0,86,0.00,,,0.05,Wunderground v.1.15,2013-05-05 03:45:00,
2013-05-04 23:50:00,70.5,66.4,29.82,ENE,71,0.0,4.0,87,0.00,,,0.05,Wunderground v.1.15,2013-05-05 03:50:00,
2013-05-04 23:55:00,70.4,66.3,29.81,ENE,71,0.0,4.0,87,0.00,,,0.05,Wunderground v.1.15,2013-05-05 03:55:00,